Year,Month,Day,Hour,Minute,Value (Times are PST for temperature in C)
2006,07,15,00,00,14.90
2006,07,15,00,01,14.80
2006,07,15,00,02,14.80
2006,07,15,00,03,14.80
2006,07,15,00,04,14.70
2006,07,15,00,05,14.70
2006,07,15,00,06,14.70
2006,07,15,00,07,14.70
2006,07,15,00,08,14.70
2006,07,15,00,09,14.70
2006,07,15,00,10,14.70
2006,07,15,00,11,14.70
2006,07,15,00,12,14.70
2006,07,15,00,13,14.80
2006,07,15,00,14,14.80
2006,07,15,00,15,14.80
2006,07,15,00,16,14.80
2006,07,15,00,17,14.80
2006,07,15,00,18,14.80
2006,07,15,00,19,14.80
2006,07,15,00,20,14.80
2006,07,15,00,21,14.70
2006,07,15,00,22,14.70
2006,07,15,00,23,14.70
2006,07,15,00,24,14.70
2006,07,15,00,25,14.70
2006,07,15,00,26,14.70
2006,07,15,00,27,14.70
2006,07,15,00,28,14.60
2006,07,15,00,29,14.60
2006,07,15,00,30,14.60
2006,07,15,00,31,14.60
2006,07,15,00,32,14.60
2006,07,15,00,33,14.60
2006,07,15,00,34,14.60
2006,07,15,00,35,14.60
2006,07,15,00,36,14.60
2006,07,15,00,37,14.60
2006,07,15,00,38,14.60
2006,07,15,00,39,14.60
2006,07,15,00,40,14.60
2006,07,15,00,41,14.60
2006,07,15,00,42,14.60
2006,07,15,00,43,14.60
2006,07,15,00,44,14.60
2006,07,15,00,45,14.60
2006,07,15,00,46,14.50
2006,07,15,00,47,14.50
2006,07,15,00,48,14.50
2006,07,15,00,49,14.50
2006,07,15,00,50,14.50
2006,07,15,00,51,14.50
2006,07,15,00,52,14.40
2006,07,15,00,53,14.40
2006,07,15,00,54,14.40
2006,07,15,00,55,14.30
2006,07,15,00,56,14.30
2006,07,15,00,57,14.20
2006,07,15,00,58,14.20
2006,07,15,00,59,14.20
2006,07,15,01,00,14.10
2006,07,15,01,01,14.00
2006,07,15,01,02,14.00
2006,07,15,01,03,14.00
2006,07,15,01,04,13.90
2006,07,15,01,05,13.90
2006,07,15,01,06,13.80
2006,07,15,01,07,13.80
2006,07,15,01,08,13.70
2006,07,15,01,09,13.70
2006,07,15,01,10,13.70
2006,07,15,01,11,13.60
2006,07,15,01,12,13.60
2006,07,15,01,13,13.60
2006,07,15,01,14,13.50
2006,07,15,01,15,13.50
2006,07,15,01,16,13.50
2006,07,15,01,17,13.40
2006,07,15,01,18,13.40
2006,07,15,01,19,13.40
2006,07,15,01,20,13.30
2006,07,15,01,21,13.30
2006,07,15,01,22,13.30
2006,07,15,01,23,13.30
2006,07,15,01,24,13.30
2006,07,15,01,25,13.30
2006,07,15,01,26,13.30
2006,07,15,01,27,13.30
2006,07,15,01,28,13.30
2006,07,15,01,29,13.30
2006,07,15,01,30,13.20
2006,07,15,01,31,13.20
2006,07,15,01,32,13.20
2006,07,15,01,33,13.20
2006,07,15,01,34,13.20
2006,07,15,01,35,13.10
2006,07,15,01,36,13.10
2006,07,15,01,37,13.10
2006,07,15,01,38,13.10
2006,07,15,01,39,13.10
2006,07,15,01,40,13.10
2006,07,15,01,41,13.10
2006,07,15,01,42,13.00
2006,07,15,01,43,13.00
2006,07,15,01,44,13.00
2006,07,15,01,45,13.00
2006,07,15,01,46,13.00
2006,07,15,01,47,13.00
2006,07,15,01,48,13.00
2006,07,15,01,49,13.00
2006,07,15,01,50,13.00
2006,07,15,01,51,13.00
2006,07,15,01,52,13.10
2006,07,15,01,53,13.10
2006,07,15,01,54,13.10
2006,07,15,01,55,13.10
2006,07,15,01,56,13.10
2006,07,15,01,57,13.20
2006,07,15,01,58,13.20
2006,07,15,01,59,13.20
2006,07,15,02,00,13.20
2006,07,15,02,01,13.20
2006,07,15,02,02,13.20
2006,07,15,02,03,13.20
2006,07,15,02,04,13.20
2006,07,15,02,05,13.30
2006,07,15,02,06,13.30
2006,07,15,02,07,13.30
2006,07,15,02,08,13.30
2006,07,15,02,09,13.30
2006,07,15,02,10,13.30
2006,07,15,02,11,13.30
2006,07,15,02,12,13.30
2006,07,15,02,13,13.30
2006,07,15,02,14,13.40
2006,07,15,02,15,13.40
2006,07,15,02,16,13.40
2006,07,15,02,17,13.40
2006,07,15,02,18,13.50
2006,07,15,02,19,13.50
2006,07,15,02,20,13.50
2006,07,15,02,21,13.50
2006,07,15,02,22,13.50
2006,07,15,02,23,13.50
2006,07,15,02,24,13.50
2006,07,15,02,25,13.50
2006,07,15,02,26,13.50
2006,07,15,02,27,13.50
2006,07,15,02,28,13.50
2006,07,15,02,29,13.50
2006,07,15,02,30,13.50
2006,07,15,02,31,13.70
2006,07,15,02,32,13.70
2006,07,15,02,33,13.80
2006,07,15,02,34,13.80
2006,07,15,02,35,13.90
2006,07,15,02,36,13.90
2006,07,15,02,37,14.00
2006,07,15,02,38,14.00
2006,07,15,02,39,14.00
2006,07,15,02,40,14.10
2006,07,15,02,41,14.10
2006,07,15,02,42,14.10
2006,07,15,02,43,14.10
2006,07,15,02,44,14.10
2006,07,15,02,45,14.10
2006,07,15,02,46,14.10
2006,07,15,02,47,14.10
2006,07,15,02,48,14.10
2006,07,15,02,49,14.20
2006,07,15,02,50,14.20
2006,07,15,02,51,14.20
2006,07,15,02,52,14.20
2006,07,15,02,53,14.20
2006,07,15,02,54,14.20
2006,07,15,02,55,14.20
2006,07,15,02,56,14.20
2006,07,15,02,57,14.20
2006,07,15,02,58,14.20
2006,07,15,02,59,14.20
2006,07,15,03,00,14.30
2006,07,15,03,01,14.30
2006,07,15,03,02,14.40
2006,07,15,03,03,14.40
2006,07,15,03,04,14.40
2006,07,15,03,05,14.40
2006,07,15,03,06,14.50
2006,07,15,03,07,14.50
2006,07,15,03,08,14.50
2006,07,15,03,09,14.50
2006,07,15,03,10,14.50
2006,07,15,03,11,14.50
2006,07,15,03,12,14.50
2006,07,15,03,13,14.60
2006,07,15,03,14,14.60
2006,07,15,03,15,14.60
2006,07,15,03,16,14.60
2006,07,15,03,17,14.60
2006,07,15,03,18,14.70
2006,07,15,03,19,14.70
2006,07,15,03,20,14.70
2006,07,15,03,21,14.70
2006,07,15,03,22,14.70
2006,07,15,03,23,14.70
2006,07,15,03,24,14.70
2006,07,15,03,25,14.70
2006,07,15,03,26,14.70
2006,07,15,03,27,14.70
2006,07,15,03,28,14.70
2006,07,15,03,29,14.70
2006,07,15,03,30,14.70
2006,07,15,03,31,14.70
2006,07,15,03,32,14.70
2006,07,15,03,33,14.70
2006,07,15,03,34,14.70
2006,07,15,03,35,14.70
2006,07,15,03,36,14.70
2006,07,15,03,37,14.70
2006,07,15,03,38,14.80
2006,07,15,03,39,14.80
2006,07,15,03,40,14.80
2006,07,15,03,41,14.80
2006,07,15,03,42,14.80
2006,07,15,03,43,14.80
2006,07,15,03,44,14.80
2006,07,15,03,45,14.80
2006,07,15,03,46,14.80
2006,07,15,03,47,14.80
2006,07,15,03,48,14.80
2006,07,15,03,49,14.80
2006,07,15,03,50,14.80
2006,07,15,03,51,14.80
2006,07,15,03,52,14.80
2006,07,15,03,53,14.80
2006,07,15,03,54,14.90
2006,07,15,03,55,14.90
2006,07,15,03,56,14.90
2006,07,15,03,57,14.90
2006,07,15,03,58,14.90
2006,07,15,03,59,14.90
2006,07,15,04,00,14.90
2006,07,15,04,01,14.90
2006,07,15,04,02,14.90
2006,07,15,04,03,14.90
2006,07,15,04,04,14.80
2006,07,15,04,05,14.80
2006,07,15,04,06,14.80
2006,07,15,04,07,14.80
2006,07,15,04,08,14.80
2006,07,15,04,09,14.70
2006,07,15,04,10,14.60
2006,07,15,04,11,14.60
2006,07,15,04,12,14.50
2006,07,15,04,13,14.50
2006,07,15,04,14,14.40
2006,07,15,04,15,14.40
2006,07,15,04,16,14.30
2006,07,15,04,17,14.30
2006,07,15,04,18,14.20
2006,07,15,04,19,14.20
2006,07,15,04,20,14.20
2006,07,15,04,21,14.20
2006,07,15,04,22,14.20
2006,07,15,04,23,14.10
2006,07,15,04,24,14.00
2006,07,15,04,25,14.00
2006,07,15,04,26,14.00
2006,07,15,04,27,13.90
2006,07,15,04,28,13.90
2006,07,15,04,29,13.80
2006,07,15,04,30,13.80
2006,07,15,04,31,13.70
2006,07,15,04,32,13.70
2006,07,15,04,33,13.70
2006,07,15,04,34,13.70
2006,07,15,04,35,13.60
2006,07,15,04,36,13.60
2006,07,15,04,37,13.60
2006,07,15,04,38,13.60
2006,07,15,04,39,13.50
2006,07,15,04,40,13.50
2006,07,15,04,41,13.50
2006,07,15,04,42,13.50
2006,07,15,04,43,13.50
2006,07,15,04,44,13.40
2006,07,15,04,45,13.40
2006,07,15,04,46,13.40
2006,07,15,04,47,13.40
2006,07,15,04,48,13.40
2006,07,15,04,49,13.40
2006,07,15,04,50,13.30
2006,07,15,04,51,13.30
2006,07,15,04,52,13.30
2006,07,15,04,53,13.30
2006,07,15,04,54,13.30
2006,07,15,04,55,13.30
2006,07,15,04,56,13.30
2006,07,15,04,57,13.30
2006,07,15,04,58,13.30
2006,07,15,04,59,13.30
2006,07,15,05,00,13.30
2006,07,15,05,01,13.30
2006,07,15,05,02,13.40
2006,07,15,05,03,13.40
2006,07,15,05,04,13.40
2006,07,15,05,05,13.40
2006,07,15,05,06,13.50
2006,07,15,05,07,13.50
2006,07,15,05,08,13.50
2006,07,15,05,09,13.50
2006,07,15,05,10,13.50
2006,07,15,05,11,13.50
2006,07,15,05,12,13.50
2006,07,15,05,13,13.50
2006,07,15,05,14,13.50
2006,07,15,05,15,13.50
2006,07,15,05,16,13.50
2006,07,15,05,17,13.50
2006,07,15,05,18,13.40
2006,07,15,05,19,13.40
2006,07,15,05,20,13.40
2006,07,15,05,21,13.40
2006,07,15,05,22,13.40
2006,07,15,05,23,13.30
2006,07,15,05,24,13.30
2006,07,15,05,25,13.30
2006,07,15,05,26,13.30
2006,07,15,05,27,13.30
2006,07,15,05,28,13.30
2006,07,15,05,29,13.30
2006,07,15,05,30,13.40
2006,07,15,05,31,13.40
2006,07,15,05,32,13.40
2006,07,15,05,33,13.40
2006,07,15,05,34,13.40
2006,07,15,05,35,13.40
2006,07,15,05,36,13.40
2006,07,15,05,37,13.40
2006,07,15,05,38,13.40
2006,07,15,05,39,13.40
2006,07,15,05,40,13.40
2006,07,15,05,41,13.30
2006,07,15,05,42,13.30
2006,07,15,05,43,13.30
2006,07,15,05,44,13.30
2006,07,15,05,45,13.30
2006,07,15,05,46,13.30
2006,07,15,05,47,13.30
2006,07,15,05,48,13.30
2006,07,15,05,49,13.30
2006,07,15,05,50,13.30
2006,07,15,05,51,13.30
2006,07,15,05,52,13.30
2006,07,15,05,53,13.30
2006,07,15,05,54,13.20
2006,07,15,05,55,13.20
2006,07,15,05,56,13.20
2006,07,15,05,57,13.20
2006,07,15,05,58,13.20
2006,07,15,05,59,13.20
2006,07,15,06,00,13.20
2006,07,15,06,01,13.20
2006,07,15,06,02,13.20
2006,07,15,06,03,13.20
2006,07,15,06,04,13.10
2006,07,15,06,05,13.10
2006,07,15,06,06,13.10
2006,07,15,06,07,13.10
2006,07,15,06,08,13.10
2006,07,15,06,09,13.10
2006,07,15,06,10,13.10
2006,07,15,06,11,13.10
2006,07,15,06,12,13.10
2006,07,15,06,13,13.20
2006,07,15,06,14,13.20
2006,07,15,06,15,13.30
2006,07,15,06,16,13.30
2006,07,15,06,17,13.30
2006,07,15,06,18,13.30
2006,07,15,06,19,13.40
2006,07,15,06,20,13.40
2006,07,15,06,21,13.40
2006,07,15,06,22,13.40
2006,07,15,06,23,13.50
2006,07,15,06,24,13.50
2006,07,15,06,25,13.50
2006,07,15,06,26,13.50
2006,07,15,06,27,13.50
2006,07,15,06,28,13.60
2006,07,15,06,29,13.60
2006,07,15,06,30,13.60
2006,07,15,06,31,13.60
2006,07,15,06,32,13.60
2006,07,15,06,33,13.60
2006,07,15,06,34,13.60
2006,07,15,06,35,13.60
2006,07,15,06,36,13.60
2006,07,15,06,37,13.60
2006,07,15,06,38,13.60
2006,07,15,06,39,13.60
2006,07,15,06,40,13.70
2006,07,15,06,41,13.70
2006,07,15,06,42,13.70
2006,07,15,06,43,13.70
2006,07,15,06,44,13.70
2006,07,15,06,45,13.70
2006,07,15,06,46,13.70
2006,07,15,06,47,13.70
2006,07,15,06,48,13.70
2006,07,15,06,49,13.70
2006,07,15,06,50,13.70
2006,07,15,06,51,13.70
2006,07,15,06,52,13.70
2006,07,15,06,53,13.70
2006,07,15,06,54,13.70
2006,07,15,06,55,13.70
2006,07,15,06,56,13.60
2006,07,15,06,57,13.60
2006,07,15,06,58,13.60
2006,07,15,06,59,13.70
2006,07,15,07,00,13.70
2006,07,15,07,01,13.70
2006,07,15,07,02,13.70
2006,07,15,07,03,13.70
2006,07,15,07,04,13.70
2006,07,15,07,05,13.70
2006,07,15,07,06,13.70
2006,07,15,07,07,13.70
2006,07,15,07,08,13.70
2006,07,15,07,09,13.70
2006,07,15,07,10,13.80
2006,07,15,07,11,13.80
2006,07,15,07,12,13.90
2006,07,15,07,13,13.90
2006,07,15,07,14,13.90
2006,07,15,07,15,14.00
2006,07,15,07,16,14.00
2006,07,15,07,17,14.10
2006,07,15,07,18,14.10
2006,07,15,07,19,14.20
2006,07,15,07,20,14.20
2006,07,15,07,21,14.20
2006,07,15,07,22,14.20
2006,07,15,07,23,14.30
2006,07,15,07,24,14.30
2006,07,15,07,25,14.40
2006,07,15,07,26,14.50
2006,07,15,07,27,14.50
2006,07,15,07,28,14.60
2006,07,15,07,29,14.60
2006,07,15,07,30,14.60
2006,07,15,07,31,14.70
2006,07,15,07,32,14.70
2006,07,15,07,33,14.80
2006,07,15,07,34,14.80
2006,07,15,07,35,14.80
2006,07,15,07,36,14.80
2006,07,15,07,37,14.80
2006,07,15,07,38,14.80
2006,07,15,07,39,14.80
2006,07,15,07,40,14.80
2006,07,15,07,41,14.80
2006,07,15,07,42,14.80
2006,07,15,07,43,14.90
2006,07,15,07,44,14.90
2006,07,15,07,45,15.00
2006,07,15,07,46,15.00
2006,07,15,07,47,15.00
2006,07,15,07,48,15.00
2006,07,15,07,49,15.00
2006,07,15,07,50,14.90
2006,07,15,07,51,14.90
2006,07,15,07,52,14.80
2006,07,15,07,53,14.80
2006,07,15,07,54,14.80
2006,07,15,07,55,14.80
2006,07,15,07,56,14.80
2006,07,15,07,57,14.80
2006,07,15,07,58,14.80
2006,07,15,07,59,14.80
2006,07,15,08,00,14.80
2006,07,15,08,01,14.80
2006,07,15,08,02,14.80
2006,07,15,08,03,14.80
2006,07,15,08,04,14.80
2006,07,15,08,05,14.90
2006,07,15,08,06,14.90
2006,07,15,08,07,15.00
2006,07,15,08,08,15.00
2006,07,15,08,09,15.00
2006,07,15,08,10,15.00
2006,07,15,08,11,15.00
2006,07,15,08,12,15.00
2006,07,15,08,13,15.00
2006,07,15,08,14,15.00
2006,07,15,08,15,15.00
2006,07,15,08,16,15.00
2006,07,15,08,17,15.00
2006,07,15,08,18,15.00
2006,07,15,08,19,15.10
2006,07,15,08,20,15.10
2006,07,15,08,21,15.20
2006,07,15,08,22,15.20
2006,07,15,08,23,15.30
2006,07,15,08,24,15.30
2006,07,15,08,25,15.40
2006,07,15,08,26,15.50
2006,07,15,08,27,15.60
2006,07,15,08,28,15.60
2006,07,15,08,29,15.60
2006,07,15,08,30,15.60
2006,07,15,08,31,15.60
2006,07,15,08,32,15.60
2006,07,15,08,33,15.60
2006,07,15,08,34,15.60
2006,07,15,08,35,15.60
2006,07,15,08,36,15.60
2006,07,15,08,37,15.70
2006,07,15,08,38,15.70
2006,07,15,08,39,15.80
2006,07,15,08,40,15.80
2006,07,15,08,41,15.80
2006,07,15,08,42,15.90
2006,07,15,08,43,15.90
2006,07,15,08,44,16.00
2006,07,15,08,45,16.10
2006,07,15,08,46,16.10
2006,07,15,08,47,16.20
2006,07,15,08,48,16.20
2006,07,15,08,49,16.30
2006,07,15,08,50,16.40
2006,07,15,08,51,16.30
2006,07,15,08,52,16.30
2006,07,15,08,53,16.20
2006,07,15,08,54,16.20
2006,07,15,08,55,16.30
2006,07,15,08,56,16.30
2006,07,15,08,57,16.40
2006,07,15,08,58,16.50
2006,07,15,08,59,16.70
2006,07,15,09,00,16.70
2006,07,15,09,01,16.80
2006,07,15,09,02,16.90
2006,07,15,09,03,17.00
2006,07,15,09,04,17.10
2006,07,15,09,05,17.20
2006,07,15,09,06,17.20
2006,07,15,09,07,17.30
2006,07,15,09,08,17.30
2006,07,15,09,09,17.30
2006,07,15,09,10,17.30
2006,07,15,09,11,17.30
2006,07,15,09,12,17.30
2006,07,15,09,13,17.30
2006,07,15,09,14,17.40
2006,07,15,09,15,17.40
2006,07,15,09,16,17.40
2006,07,15,09,17,17.50
2006,07,15,09,18,17.50
2006,07,15,09,19,17.50
2006,07,15,09,20,17.40
2006,07,15,09,21,17.30
2006,07,15,09,22,17.30
2006,07,15,09,23,17.30
2006,07,15,09,24,17.30
2006,07,15,09,25,17.30
2006,07,15,09,26,17.30
2006,07,15,09,27,17.30
2006,07,15,09,28,17.30
2006,07,15,09,29,17.30
2006,07,15,09,30,17.30
2006,07,15,09,31,17.30
2006,07,15,09,32,17.40
2006,07,15,09,33,17.40
2006,07,15,09,34,17.40
2006,07,15,09,35,17.40
2006,07,15,09,36,17.50
2006,07,15,09,37,17.50
2006,07,15,09,38,17.60
2006,07,15,09,39,17.60
2006,07,15,09,40,17.60
2006,07,15,09,41,17.70
2006,07,15,09,42,17.70
2006,07,15,09,43,17.80
2006,07,15,09,44,17.90
2006,07,15,09,45,17.90
2006,07,15,09,46,17.90
2006,07,15,09,47,17.90
2006,07,15,09,48,17.90
2006,07,15,09,49,18.00
2006,07,15,09,50,18.10
2006,07,15,09,51,18.10
2006,07,15,09,52,18.20
2006,07,15,09,53,18.20
2006,07,15,09,54,18.20
2006,07,15,09,55,18.20
2006,07,15,09,56,18.30
2006,07,15,09,57,18.30
2006,07,15,09,58,18.30
2006,07,15,09,59,18.20
2006,07,15,10,00,18.20
2006,07,15,10,01,18.20
2006,07,15,10,02,18.30
2006,07,15,10,03,18.20
2006,07,15,10,04,18.00
2006,07,15,10,05,17.90
2006,07,15,10,06,17.90
2006,07,15,10,07,17.80
2006,07,15,10,08,17.70
2006,07,15,10,09,17.60
2006,07,15,10,10,17.60
2006,07,15,10,11,17.60
2006,07,15,10,12,17.60
2006,07,15,10,13,17.70
2006,07,15,10,14,17.70
2006,07,15,10,15,17.80
2006,07,15,10,16,17.90
2006,07,15,10,17,17.90
2006,07,15,10,18,18.10
2006,07,15,10,19,18.20
2006,07,15,10,20,18.40
2006,07,15,10,21,18.50
2006,07,15,10,22,18.60
2006,07,15,10,23,18.60
2006,07,15,10,24,18.50
2006,07,15,10,25,18.40
2006,07,15,10,26,18.30
2006,07,15,10,27,18.30
2006,07,15,10,28,18.20
2006,07,15,10,29,18.20
2006,07,15,10,30,18.20
2006,07,15,10,31,18.20
2006,07,15,10,32,18.30
2006,07,15,10,33,18.20
2006,07,15,10,34,18.20
2006,07,15,10,35,18.20
2006,07,15,10,36,18.20
2006,07,15,10,37,18.20
2006,07,15,10,38,18.20
2006,07,15,10,39,18.20
2006,07,15,10,40,18.30
2006,07,15,10,41,18.30
2006,07,15,10,42,18.30
2006,07,15,10,43,18.30
2006,07,15,10,44,18.30
2006,07,15,10,45,18.30
2006,07,15,10,46,18.40
2006,07,15,10,47,18.40
2006,07,15,10,48,18.50
2006,07,15,10,49,18.50
2006,07,15,10,50,18.60
2006,07,15,10,51,18.60
2006,07,15,10,52,18.50
2006,07,15,10,53,18.40
2006,07,15,10,54,18.40
2006,07,15,10,55,18.40
2006,07,15,10,56,18.40
2006,07,15,10,57,18.40
2006,07,15,10,58,18.30
2006,07,15,10,59,18.30
2006,07,15,11,00,18.40
2006,07,15,11,01,18.40
2006,07,15,11,02,18.40
2006,07,15,11,03,18.40
2006,07,15,11,04,18.30
2006,07,15,11,05,18.30
2006,07,15,11,06,18.20
2006,07,15,11,07,18.20
2006,07,15,11,08,18.30
2006,07,15,11,09,18.30
2006,07,15,11,10,18.40
2006,07,15,11,11,18.50
2006,07,15,11,12,18.60
2006,07,15,11,13,18.70
2006,07,15,11,14,18.60
2006,07,15,11,15,18.60
2006,07,15,11,16,18.70
2006,07,15,11,17,18.70
2006,07,15,11,18,18.70
2006,07,15,11,19,18.70
2006,07,15,11,20,18.70
2006,07,15,11,21,18.70
2006,07,15,11,22,18.80
2006,07,15,11,23,18.80
2006,07,15,11,24,18.80
2006,07,15,11,25,18.80
2006,07,15,11,26,18.70
2006,07,15,11,27,18.70
2006,07,15,11,28,18.70
2006,07,15,11,29,18.70
2006,07,15,11,30,18.70
2006,07,15,11,31,18.80
2006,07,15,11,32,18.90
2006,07,15,11,33,19.00
2006,07,15,11,34,19.10
2006,07,15,11,35,19.20
2006,07,15,11,36,19.30
2006,07,15,11,37,19.30
2006,07,15,11,38,19.40
2006,07,15,11,39,19.40
2006,07,15,11,40,19.60
2006,07,15,11,41,19.60
2006,07,15,11,42,19.60
2006,07,15,11,43,19.60
2006,07,15,11,44,19.60
2006,07,15,11,45,19.60
2006,07,15,11,46,19.60
2006,07,15,11,47,19.70
2006,07,15,11,48,19.70
2006,07,15,11,49,19.80
2006,07,15,11,50,19.90
2006,07,15,11,51,19.90
2006,07,15,11,52,20.10
2006,07,15,11,53,20.20
2006,07,15,11,54,20.30
2006,07,15,11,55,20.40
2006,07,15,11,56,20.40
2006,07,15,11,57,20.30
2006,07,15,11,58,20.10
2006,07,15,11,59,19.90
2006,07,15,12,00,19.70
2006,07,15,12,01,19.60
2006,07,15,12,02,19.50
2006,07,15,12,03,19.40
2006,07,15,12,04,19.40
2006,07,15,12,05,19.40
2006,07,15,12,06,19.40
2006,07,15,12,07,19.40
2006,07,15,12,08,19.40
2006,07,15,12,09,19.40
2006,07,15,12,10,19.30
2006,07,15,12,11,19.20
2006,07,15,12,12,19.30
2006,07,15,12,13,19.30
2006,07,15,12,14,19.30
2006,07,15,12,15,19.30
2006,07,15,12,16,19.30
2006,07,15,12,17,19.40
2006,07,15,12,18,19.50
2006,07,15,12,19,19.50
2006,07,15,12,20,19.40
2006,07,15,12,21,19.50
2006,07,15,12,22,19.50
2006,07,15,12,23,19.50
2006,07,15,12,24,19.50
2006,07,15,12,25,19.60
2006,07,15,12,26,19.60
2006,07,15,12,27,19.60
2006,07,15,12,28,19.60
2006,07,15,12,29,19.60
2006,07,15,12,30,19.70
2006,07,15,12,31,19.70
2006,07,15,12,32,19.90
2006,07,15,12,33,19.90
2006,07,15,12,34,19.90
2006,07,15,12,35,19.90
2006,07,15,12,36,20.00
2006,07,15,12,37,20.10
2006,07,15,12,38,20.20
2006,07,15,12,39,20.20
2006,07,15,12,40,20.10
2006,07,15,12,41,20.20
2006,07,15,12,42,20.20
2006,07,15,12,43,20.30
2006,07,15,12,44,20.40
2006,07,15,12,45,20.50
2006,07,15,12,46,20.50
2006,07,15,12,47,20.60
2006,07,15,12,48,20.70
2006,07,15,12,49,20.80
2006,07,15,12,50,20.90
2006,07,15,12,51,20.80
2006,07,15,12,52,20.80
2006,07,15,12,53,20.90
2006,07,15,12,54,20.90
2006,07,15,12,55,20.90
2006,07,15,12,56,21.00
2006,07,15,12,57,21.20
2006,07,15,12,58,21.30
2006,07,15,12,59,21.30
2006,07,15,13,00,21.40
2006,07,15,13,01,21.40
2006,07,15,13,02,21.50
2006,07,15,13,03,21.60
2006,07,15,13,04,21.60
2006,07,15,13,05,21.60
2006,07,15,13,06,21.60
2006,07,15,13,07,21.60
2006,07,15,13,08,21.80
2006,07,15,13,09,21.90
2006,07,15,13,10,21.90
2006,07,15,13,11,21.70
2006,07,15,13,12,21.70
2006,07,15,13,13,21.70
2006,07,15,13,14,21.60
2006,07,15,13,15,21.60
2006,07,15,13,16,21.60
2006,07,15,13,17,21.80
2006,07,15,13,18,21.80
2006,07,15,13,19,21.60
2006,07,15,13,20,21.60
2006,07,15,13,21,21.60
2006,07,15,13,22,21.50
2006,07,15,13,23,21.40
2006,07,15,13,24,21.60
2006,07,15,13,25,21.60
2006,07,15,13,26,21.60
2006,07,15,13,27,21.60
2006,07,15,13,28,21.70
2006,07,15,13,29,21.80
2006,07,15,13,30,21.80
2006,07,15,13,31,21.70
2006,07,15,13,32,21.70
2006,07,15,13,33,21.80
2006,07,15,13,34,21.70
2006,07,15,13,35,21.70
2006,07,15,13,36,21.60
2006,07,15,13,37,21.60
2006,07,15,13,38,21.60
2006,07,15,13,39,21.60
2006,07,15,13,40,21.50
2006,07,15,13,41,21.40
2006,07,15,13,42,21.30
2006,07,15,13,43,21.30
2006,07,15,13,44,21.20
2006,07,15,13,45,21.10
2006,07,15,13,46,21.10
2006,07,15,13,47,21.10
2006,07,15,13,48,21.00
2006,07,15,13,49,21.00
2006,07,15,13,50,21.10
2006,07,15,13,51,21.20
2006,07,15,13,52,21.30
2006,07,15,13,53,21.40
2006,07,15,13,54,21.60
2006,07,15,13,55,21.60
2006,07,15,13,56,21.60
2006,07,15,13,57,21.60
2006,07,15,13,58,21.70
2006,07,15,13,59,21.80
2006,07,15,14,00,21.80
2006,07,15,14,01,21.80
2006,07,15,14,02,21.60
2006,07,15,14,03,21.60
2006,07,15,14,04,21.50
2006,07,15,14,05,21.50
2006,07,15,14,06,21.60
2006,07,15,14,07,21.70
2006,07,15,14,08,21.80
2006,07,15,14,09,21.90
2006,07,15,14,10,22.00
2006,07,15,14,11,22.20
2006,07,15,14,12,22.30
2006,07,15,14,13,22.40
2006,07,15,14,14,22.30
2006,07,15,14,15,22.10
2006,07,15,14,16,22.00
2006,07,15,14,17,22.00
2006,07,15,14,18,22.10
2006,07,15,14,19,22.00
2006,07,15,14,20,22.00
2006,07,15,14,21,21.70
2006,07,15,14,22,21.60
2006,07,15,14,23,21.60
2006,07,15,14,24,21.70
2006,07,15,14,25,21.80
2006,07,15,14,26,21.90
2006,07,15,14,27,21.80
2006,07,15,14,28,21.90
2006,07,15,14,29,21.90
2006,07,15,14,30,21.80
2006,07,15,14,31,21.70
2006,07,15,14,32,21.70
2006,07,15,14,33,21.50
2006,07,15,14,34,21.40
2006,07,15,14,35,21.40
2006,07,15,14,36,21.50
2006,07,15,14,37,21.60
2006,07,15,14,38,21.50
2006,07,15,14,39,21.50
2006,07,15,14,40,21.60
2006,07,15,14,41,21.60
2006,07,15,14,42,21.70
2006,07,15,14,43,21.80
2006,07,15,14,44,21.70
2006,07,15,14,45,21.60
2006,07,15,14,46,21.50
2006,07,15,14,47,21.30
2006,07,15,14,48,21.40
2006,07,15,14,49,21.40
2006,07,15,14,50,21.40
2006,07,15,14,51,21.50
2006,07,15,14,52,21.60
2006,07,15,14,53,21.60
2006,07,15,14,54,21.60
2006,07,15,14,55,21.70
2006,07,15,14,56,21.80
2006,07,15,14,57,21.90
2006,07,15,14,58,21.90
2006,07,15,14,59,21.80
2006,07,15,15,00,21.80
2006,07,15,15,01,21.80
2006,07,15,15,02,21.80
2006,07,15,15,03,21.90
2006,07,15,15,04,22.00
2006,07,15,15,05,22.00
2006,07,15,15,06,22.00
2006,07,15,15,07,22.00
2006,07,15,15,08,22.10
2006,07,15,15,09,22.00
2006,07,15,15,10,22.00
2006,07,15,15,11,21.80
2006,07,15,15,12,21.80
2006,07,15,15,13,21.80
2006,07,15,15,14,21.80
2006,07,15,15,15,21.90
2006,07,15,15,16,22.00
2006,07,15,15,17,22.00
2006,07,15,15,18,22.00
2006,07,15,15,19,22.00
2006,07,15,15,20,22.00
2006,07,15,15,21,21.90
2006,07,15,15,22,21.90
2006,07,15,15,23,21.90
2006,07,15,15,24,21.80
2006,07,15,15,25,21.90
2006,07,15,15,26,22.00
2006,07,15,15,27,22.00
2006,07,15,15,28,22.00
2006,07,15,15,29,22.10
2006,07,15,15,30,22.20
2006,07,15,15,31,22.20
2006,07,15,15,32,22.20
2006,07,15,15,33,22.20
2006,07,15,15,34,22.10
2006,07,15,15,35,22.10
2006,07,15,15,36,22.10
2006,07,15,15,37,22.20
2006,07,15,15,38,22.30
2006,07,15,15,39,22.20
2006,07,15,15,40,22.10
2006,07,15,15,41,22.00
2006,07,15,15,42,22.00
2006,07,15,15,43,22.00
2006,07,15,15,44,21.90
2006,07,15,15,45,21.70
2006,07,15,15,46,21.70
2006,07,15,15,47,21.70
2006,07,15,15,48,21.70
2006,07,15,15,49,21.70
2006,07,15,15,50,21.70
2006,07,15,15,51,21.70
2006,07,15,15,52,21.80
2006,07,15,15,53,21.80
2006,07,15,15,54,21.80
2006,07,15,15,55,21.80
2006,07,15,15,56,21.90
2006,07,15,15,57,22.00
2006,07,15,15,58,22.10
2006,07,15,15,59,22.20
2006,07,15,16,00,22.30
2006,07,15,16,01,22.30
2006,07,15,16,02,22.30
2006,07,15,16,03,22.30
2006,07,15,16,04,22.30
2006,07,15,16,05,22.20
2006,07,15,16,06,22.10
2006,07,15,16,07,22.00
2006,07,15,16,08,21.90
2006,07,15,16,09,22.00
2006,07,15,16,10,22.10
2006,07,15,16,11,22.20
2006,07,15,16,12,22.30
2006,07,15,16,13,22.40
2006,07,15,16,14,22.40
2006,07,15,16,15,22.40
2006,07,15,16,16,22.30
2006,07,15,16,17,22.30
2006,07,15,16,18,22.30
2006,07,15,16,19,22.20
2006,07,15,16,20,22.10
2006,07,15,16,21,22.00
2006,07,15,16,22,22.10
2006,07,15,16,23,22.10
2006,07,15,16,24,22.20
2006,07,15,16,25,22.30
2006,07,15,16,26,22.20
2006,07,15,16,27,21.90
2006,07,15,16,28,21.70
2006,07,15,16,29,21.60
2006,07,15,16,30,21.60
2006,07,15,16,31,21.70
2006,07,15,16,32,21.60
2006,07,15,16,33,21.60
2006,07,15,16,34,21.40
2006,07,15,16,35,21.40
2006,07,15,16,36,21.40
2006,07,15,16,37,21.60
2006,07,15,16,38,21.70
2006,07,15,16,39,21.60
2006,07,15,16,40,21.70
2006,07,15,16,41,21.70
2006,07,15,16,42,21.60
2006,07,15,16,43,21.60
2006,07,15,16,44,21.60
2006,07,15,16,45,21.70
2006,07,15,16,46,21.80
2006,07,15,16,47,21.70
2006,07,15,16,48,21.70
2006,07,15,16,49,21.80
2006,07,15,16,50,21.80
2006,07,15,16,51,21.60
2006,07,15,16,52,21.60
2006,07,15,16,53,21.60
2006,07,15,16,54,21.60
2006,07,15,16,55,21.80
2006,07,15,16,56,21.80
2006,07,15,16,57,21.80
2006,07,15,16,58,21.70
2006,07,15,16,59,21.70
2006,07,15,17,00,21.90
2006,07,15,17,01,21.90
2006,07,15,17,02,21.90
2006,07,15,17,03,21.80
2006,07,15,17,04,21.60
2006,07,15,17,05,21.50
2006,07,15,17,06,21.40
2006,07,15,17,07,21.30
2006,07,15,17,08,21.30
2006,07,15,17,09,21.40
2006,07,15,17,10,21.60
2006,07,15,17,11,21.50
2006,07,15,17,12,21.40
2006,07,15,17,13,21.40
2006,07,15,17,14,21.30
2006,07,15,17,15,21.30
2006,07,15,17,16,21.30
2006,07,15,17,17,21.30
2006,07,15,17,18,21.30
2006,07,15,17,19,21.30